Regional Weather Roundup
Issued by NWS

Home | Current Version | Previous Version | Text Only | Print | Product List | Glossary Off
Versions: 1 2 3 4 5 6 7 8 9 10 11 12 13 14 15 16 17 18 19 20 21 22 23 24 25 26 27 28 29 30 31 32 33 34 35 36 37 38 39 40 41 42 43 44 45 46 47 48 49 50

000
ASUS43 KLSX 181807
RWRMO

WEATHER SUMMARY FOR MISSOURI
NATIONAL WEATHER SERVICE SPRINGFIELD MO
100 PM CDT FRI AUG 18 2017

NOTE: "FAIR" INDICATES FEW OR NO CLOUDS BELOW 12,000 FEET WITH NO
       SIGNIFICANT WEATHER AND/OR OBSTRUCTIONS TO VISIBILITY.
       CURRENT SKY AND/OR WEATHER CONDITIONS ARE NOT AVAILABLE FOR
       CHILLICOTHE AND FARMINGTON.

MOZ001>031-035>038-043-044-053-054-181900-
...NORTHERN AND WESTERN MISSOURI...

CITY           SKY/WX    TMP DP  RH WIND       PRES   REMARKS
KANSAS CTY INT MOSUNNY   83  67  58 S15       29.94F
6HR MIN TEMP:  63; 6HR MAX TEMP:  83;

KANSAS C DTWN  CLOUDY    84  65  52 SW15G21   29.93F
6HR MIN TEMP:  69; 6HR MAX TEMP:  84;

LEE`S SUMMIT   CLOUDY    78  67  68 SW9       29.97F
6HR MIN TEMP:  65; 6HR MAX TEMP:  79;

ST JOSEPH      SUNNY     85  68  56 W13       29.92F
6HR MIN TEMP:  59; 6HR MAX TEMP:  86; 6HR PCP: TRACE;

CHILLICOTHE      N/A     83  72  69 S9        29.94F
6HR MIN TEMP:  59; 6HR MAX TEMP:  84;

KIRKSVILLE     MOSUNNY   83  63  50 S12       29.93F
6HR MIN TEMP:  59; 6HR MAX TEMP:  86;


$$
MOZ066>068-077>081-088>096-101>105-181900-
...SOUTHWEST MISSOURI...

CITY           SKY/WX    TMP DP  RH WIND       PRES   REMARKS
SPRINGFIELD    CLOUDY    83  72  69 SW7       30.02F
6HR MIN TEMP:  60; 6HR MAX TEMP:  83;

JOPLIN         CLOUDY    84  77  79 SW9       30.01F HX  94
6HR MIN TEMP:  67; 6HR MAX TEMP:  84;

BRANSON        MOSUNNY   81  73  78 SW5       30.05F

$$
MOZ032>034-039>042-045>050-055>058-069>072-181900-
...CENTRAL MISSOURI...

CITY           SKY/WX    TMP DP  RH WIND       PRES   REMARKS
COLUMBIA       CLOUDY    81  67  62 SW7       29.98F
6HR MIN TEMP:  63; 6HR MAX TEMP:  85;

JEFFERSON CITY CLOUDY    83  69  62 S5        29.96F
6HR MIN TEMP:  61; 6HR MAX TEMP:  84;

ROLLA          MOSUNNY   79  67  66 S6        30.02F
6HR MIN TEMP:  61; 6HR MAX TEMP:  82;

SEDALIA        CLOUDY    76  69  79 SW10      30.00F
6HR MIN TEMP:  64; 6HR MAX TEMP:  81;

WHITEMAN AFB   LGT RAIN  75  75  99 S7        29.97F
WARRENSBURG    DRIZZLE   73  66  78 S5        29.97F
OSAGE BEACH    CLOUDY    78  67  68 CALM      30.01S

$$
MOZ051-052-059>065-181900-
...EAST CENTRAL MISSOURI...

CITY           SKY/WX    TMP DP  RH WIND       PRES   REMARKS
ST LOUIS INTL  MOSUNNY   84  62  47 VRB3      29.97F
6HR MIN TEMP:  68; 6HR MAX TEMP:  86;

SPIRIT OF STL  MOSUNNY   85  64  49 CALM      29.96F
6HR MIN TEMP:  64; 6HR MAX TEMP:  85;

ST CHARLES     SUNNY     83  64  52 SW7       29.96F
6HR MIN TEMP:  64; 6HR MAX TEMP:  83;


$$
MOZ072>076-082>087-097>100-106>115-181900-
...SOUTH CENTRAL AND SOUTHEAST MISSOURI...

CITY           SKY/WX    TMP DP  RH WIND       PRES   REMARKS
CAPE GIRARDEAU SUNNY     83  66  56 W6        29.99F
6HR MIN TEMP:  63; 6HR MAX TEMP:  84;

FARMINGTON     SUNNY     84  62  47 VRB3      30.01F
6HR MIN TEMP:  62; 6HR MAX TEMP:  84;

POPLAR BLUFF   SUNNY     88  67  49 CALM      29.99F HX  91
6HR MIN TEMP:  65; 6HR MAX TEMP:  88;

WEST PLAINS    CLOUDY    81  58  45 SW5       30.05F
6HR MIN TEMP:  63; 6HR MAX TEMP:  83;


$$



USA.gov is the U.S. government's official web portal to all federal, state and local government web resources and services.